Temperature
14 14 14 14 13 13 12 12 12 12 13 13 13 13 13 13 13 13 14 14 14 14 14 13 13 13 13 13 14 14 14 14 14 14 14 13 13 14 13 13 13 14 14
13 13 13 13 13 12 12 12 12 12 12 12 12 12 12 13 12 12 13 13 13 13 13 13 13 13 13 13 14 14 14 14 14 14 13 13 13 13 13 13 13 13 13
13 13 13 13 12 12 12 12 12 12 12 11 11 11 11 11 11 12 12 12 13 13 13 13 13 13 13 13 14 14 14 14 14 13 13 13 13 13 13 12 12 12 12
13 13 13 12 12 12 12 12 12 11 11 11 11 11 11 10 10 11 11 12 12 12 13 13 13 13 13 13 14 14 14 14 13 13 12 13 13 12 12 12 11 11 11
12 12 12 12 12 12 12 11 11 11 11 11 11 11 11 11 10 11 11 11 11 12 12 13 13 13 13 13 13 14 14 14 13 12 12 13 12 12 12 11 11 11 11
11 12 12 12 12 12 11 11 11 11 11 11 10 11 11 10 11 11 11 11 11 11 12 12 13 13 13 13 13 13 14 14 13 12 12 12 12 12 12 11 11 10 9
11 11 11 11 11 11 11 11 11 11 11 10 10 10 10 10 10 10 10 10 11 11 11 12 12 13 13 13 13 13 13 13 13 13 13 12 12 12 11 11 10 10 10
10 10 10 10 10 10 10 10 10 10 10 10 10 10 10 10 10 10 10 10 11 11 11 11 12 12 12 13 13 13 13 13 12 12 12 12 12 11 11 11 10 10 10
8 8 8 8 8 8 8 9 9 9 9 9 9 9 9 9 10 10 10 10 10 10 10 11 11 11 12 13 13 12 12 12 11 11 11 11 11 11 11 11 10 10 10
6 6 6 6 6 6 7 7 7 8 8 8 9 9 9 9 9 9 10 10 10 10 10 10 11 11 12 12 12 12 12 12 11 11 11 11 11 11 11 11 11 11 10
4 4 4 4 5 5 5 5 6 6 7 7 7 7 8 8 8 9 9 9 10 10 10 10 10 11 12 12 12 12 12 12 12 11 11 11 11 10 10 11 11 12 11
3 3 3 4 4 4 4 4 4 5 5 6 6 6 7 8 8 8 9 9 9 9 9 9 10 10 11 12 12 12 12 12 12 11 11 11 11 11 11 11 11 11 12
3 3 3 3 4 4 4 4 4 4 5 5 5 6 6 7 7 8 9 9 9 9 9 9 9 10 10 11 11 11 12 11 11 11 11 11 11 11 11 11 11 11 11
3 3 3 3 3 4 4 4 4 4 4 5 5 5 6 6 7 8 8 9 9 9 9 8 9 9 10 10 10 11 11 11 11 11 11 11 11 11 11 11 11 11 11
3 3 3 3 3 3 4 4 4 4 4 4 5 5 6 7 8 8 9 9 9 9 8 8 8 8 9 9 10 11 11 11 11 11 11 11 11 11 11 11 11 11 11
3 3 3 3 3 3 3 4 4 4 5 5 5 5 6 7 8 8 8 8 8 8 8 7 8 8 9 9 10 10 11 11 11 11 11 11 11 11 11 11 11 11 11
4 4 3 3 3 3 4 4 4 5 5 5 5 6 6 7 8 8 8 7 7 7 7 7 7 8 9 9 9 10 11 11 11 11 11 11 11 11 11 10 10 10 10
4 4 3 4 4 4 4 4 4 5 5 6 6 6 6 7 7 7 7 7 7 6 6 7 7 8 8 9 9 10 11 11 11 11 11 11 11 11 10 10 10 10 9
4 4 4 4 4 4 4 4 5 5 6 6 6 6 6 7 7 7 7 7 6 6 6 7 7 8 8 9 9 10 11 11 11 11 11 11 11 10 10 10 10 10 9
5 5 4 4 4 5 5 5 5 5 6 6 6 6 7 7 7 7 6 6 6 6 6 7 7 8 9 9 10 10 11 11 11 11 11 11 10 10 10 10 10 10 10
6 6 5 5 5 5 5 5 6 6 6 6 6 6 7 7 7 7 6 6 6 6 7 7 8 9 9 10 10 11 11 11 11 11 11 11 11 11 11 11 11 10 10
7 6 6 6 6 5 5 6 6 6 6 6 6 6 6 6 6 6 6 6 7 7 7 8 9 10 10 10 11 11 11 11 11 11 11 11 11 11 11 11 11 11 10
7 7 7 6 6 6 6 6 7 7 7 7 7 7 6 6 6 6 6 7 7 8 8 9 10 11 11 11 11 11 11 11 11 11 11 11 11 11 11 11 11 11 11
7 7 7 7 7 7 7 7 7 7 7 7 7 7 7 6 6 6 7 7 8 9 9 10 11 11 12 12 12 11 11 11 11 11 11 11 11 11 11 11 11 10 10
7 7 7 7 7 6 7 7 7 7 7 7 7 7 7 7 7 7 7 8 9 9 10 11 11 12 12 12 11 11 11 11 11 11 11 11 11 11 11 11 11 11 10
8 8 7 7 6 6 6 6 6 7 7 7 7 7 7 7 7 8 8 9 9 10 11 11 11 11 12 11 11 11 11 11 11 11 11 11 11 11 11 11 11 11 11
Wind_Speed
10 9 9 9 8 7 7 8 7 6 6 7 7 7 7 8 8 7 8 9 9 9 8 8 9 8 6 5 5 4 5 5 5 4 3 3 4 9 9 9 10 10 13
11 10 10 10 8 8 9 10 8 8 7 7 7 7 7 7 7 7 8 8 9 9 9 9 9 7 7 6 5 6 5 5 5 5 4 3 4 10 10 9 6 9 11
11 11 11 11 10 11 12 11 10 9 8 7 7 7 8 8 8 8 7 7 7 8 8 9 9 9 8 6 6 6 5 5 6 6 5 3 4 7 10 9 9 9 10
12 11 12 13 14 15 13 11 10 9 9 9 9 8 8 8 9 10 9 8 7 6 7 8 9 9 9 8 7 7 6 6 6 6 6 7 6 8 10 10 9 8 8
12 13 15 16 15 12 11 11 11 9 10 10 10 9 9 8 9 10 9 9 8 7 7 8 9 11 12 10 7 6 6 5 4 6 8 7 8 10 10 7 11 10 9
11 13 14 14 14 13 13 12 11 10 10 10 10 10 10 10 12 14 11 8 8 8 9 8 9 10 13 14 12 10 8 6 6 6 6 10 10 10 9 12 13 13 7
11 12 12 12 13 14 14 12 12 12 10 10 10 9 10 13 17 17 16 10 8 8 8 8 7 8 11 9 10 8 6 6 6 6 9 10 11 12 13 12 10 8 6
9 10 9 7 9 9 9 9 10 8 8 8 8 7 8 12 17 18 18 10 7 7 7 8 9 9 10 11 9 6 6 6 6 5 7 9 12 13 12 11 11 9 8
7 7 7 7 7 7 7 8 7 6 7 7 6 7 8 11 16 17 16 6 6 6 5 7 10 12 16 15 11 9 7 5 8 12 13 15 17 17 15 12 11 12 9
11 10 9 8 8 8 8 8 7 7 7 7 7 8 9 10 14 17 15 6 6 5 4 5 11 15 17 17 12 11 10 7 8 10 12 14 14 14 12 10 11 12 10
15 14 12 11 10 10 9 8 8 7 7 7 8 8 9 11 14 17 16 8 7 5 4 3 4 13 17 18 14 10 12 11 10 10 9 8 7 7 6 7 8 11 9
16 16 15 13 12 12 8 7 8 8 8 8 8 9 9 9 12 14 17 14 9 6 5 3 1 5 10 13 11 14 17 13 9 9 8 7 7 6 6 7 8 6 6
15 16 15 14 12 10 8 9 8 8 7 7 7 8 9 7 9 15 15 14 12 6 4 5 5 8 5 5 10 18 17 11 10 10 9 6 5 6 6 7 8 7 6
15 14 13 11 10 9 8 7 6 6 7 7 7 8 7 6 6 6 7 8 10 7 5 6 8 10 5 0 7 14 11 11 11 10 8 6 5 6 7 7 7 7 6
14 13 11 10 9 8 8 7 8 7 8 8 7 6 6 6 9 13 11 9 9 8 6 3 3 4 4 1 6 8 8 10 10 7 9 7 6 6 6 5 5 4 5
13 11 8 7 7 6 6 7 10 12 14 16 14 9 6 5 7 14 14 12 13 13 7 4 5 5 5 4 6 7 7 9 9 10 11 9 8 8 6 4 4 6 7
12 10 7 6 5 4 5 5 6 5 4 7 8 6 3 7 12 14 13 12 12 12 6 6 6 6 5 4 5 6 6 7 9 11 12 10 9 8 7 6 5 5 6
11 10 7 4 3 4 4 4 3 3 2 1 2 6 8 10 12 13 14 11 6 4 4 6 7 7 6 5 6 6 7 8 9 10 11 10 9 8 8 7 6 6 5
9 5 4 4 3 3 3 2 2 2 1 2 3 5 8 9 9 10 11 5 6 5 4 4 5 6 6 6 6 7 9 9 10 9 10 10 9 8 7 8 8 9 6
7 8 5 3 3 3 2 2 2 1 2 4 4 4 5 4 5 6 4 3 4 4 3 2 2 4 6 6 7 8 9 9 10 8 8 8 8 8 9 9 9 8 5
7 6 7 4 3 2 2 1 1 1 2 4 4 5 8 5 6 7 6 4 4 3 3 3 4 5 6 7 8 9 11 9 8 8 8 8 8 7 8 8 9 9 7
7 5 4 4 3 3 2 1 1 1 4 5 4 4 7 4 5 6 6 5 4 4 4 5 6 6 8 9 9 9 9 9 8 8 8 8 8 7 7 7 8 8 8
7 6 5 4 2 2 2 2 2 1 3 5 5 4 3 4 5 5 5 4 3 3 3 3 4 5 7 8 9 10 10 9 9 10 9 8 7 7 7 7 9 9 8
6 5 5 5 4 2 2 3 3 3 4 5 5 4 4 4 4 4 3 2 2 2 1 1 3 7 10 9 8 8 8 9 8 9 12 10 8 8 8 8 9 10 10
6 5 4 3 2 3 3 4 5 5 5 4 4 3 3 4 4 4 2 2 3 1 2 4 4 5 10 12 10 8 12 14 12 10 8 9 10 10 9 9 8 7 6
6 5 4 3 2 2 0 2 3 3 3 2 3 3 3 3 4 3 2 2 3 2 4 4 4 4 8 9 11 13 14 14 13 13 9 8 9 8 9 7 9 8 8
Wind_Direction
250 249 252 255 256 261 266 271 274 277 277 278 279 282 292 294 282 253 233 223 224 229 227 229 239 241 237 228 212 198 198 201 235 247 216 144 128 127 118 114 114 111 113
249 251 253 258 263 268 268 267 265 268 271 269 272 278 284 293 302 292 270 248 231 230 230 228 238 241 231 221 209 202 198 199 211 231 196 155 133 138 126 116 107 107 109
255 246 248 253 255 258 261 264 264 261 265 269 262 261 268 275 281 284 284 274 250 239 235 229 232 232 235 226 213 206 208 210 213 217 187 149 133 139 125 111 108 106 105
268 255 246 246 246 249 254 257 261 263 266 269 262 250 250 259 266 267 265 266 261 254 247 240 234 227 227 221 210 210 212 215 214 207 178 159 150 142 133 130 123 115 112
261 254 247 246 245 244 246 252 255 255 256 259 264 258 248 249 257 254 250 250 249 252 255 249 244 235 224 206 198 205 203 198 189 184 170 155 153 153 146 139 134 122 108
260 254 249 245 241 238 239 243 248 251 253 254 257 259 258 259 256 252 246 245 248 251 258 257 248 233 211 199 196 194 189 176 174 170 165 159 159 154 141 142 139 135 132
269 264 257 247 237 232 229 226 228 231 235 242 248 252 257 257 253 251 248 238 243 250 256 253 243 216 189 179 178 170 159 146 154 164 160 154 156 153 143 140 139 130 120
286 287 283 267 249 236 223 216 213 205 203 214 226 237 257 262 252 245 244 237 241 254 261 246 221 204 193 175 160 148 135 124 121 119 132 133 141 140 135 134 133 117 108
303 301 301 304 292 269 244 232 222 214 211 213 218 229 246 259 254 241 235 223 231 247 267 260 226 204 192 171 155 147 134 120 107 109 112 120 127 132 138 139 139 139 138
294 286 280 276 274 273 266 253 237 223 227 232 238 237 243 252 250 236 222 207 218 233 256 271 231 205 184 171 160 156 150 143 126 113 111 119 130 139 145 151 154 153 147
297 291 284 277 270 264 257 249 244 240 240 239 243 245 247 249 246 232 216 200 201 208 219 253 240 203 181 174 163 164 160 146 131 122 119 121 129 147 167 169 165 161 158
299 295 289 283 278 278 262 252 246 243 242 237 237 250 254 250 241 231 217 205 188 183 193 198 165 169 182 176 167 156 147 138 132 128 128 133 138 145 153 159 161 161 166
300 297 293 288 280 273 268 265 257 241 232 231 233 246 253 244 234 227 215 203 186 174 167 154 123 121 142 180 176 155 148 144 143 141 142 139 130 127 120 114 112 111 84
296 296 293 288 279 273 268 262 256 243 234 235 236 240 244 237 219 202 194 187 181 171 154 140 120 117 112 286 175 165 158 156 153 149 142 130 116 114 122 125 126 119 101
293 290 288 281 276 272 267 259 253 246 239 233 233 229 225 235 223 194 182 181 182 180 156 141 147 138 130 172 180 173 157 150 143 137 141 134 128 124 122 119 118 111 118
300 294 287 282 274 267 270 276 259 249 253 242 236 234 236 237 192 174 175 169 166 165 157 166 166 157 154 183 181 164 154 151 149 149 152 150 148 144 136 122 113 124 127
310 306 297 288 273 265 270 274 285 287 281 252 233 215 146 123 142 155 157 150 154 160 171 178 173 166 160 182 182 161 153 154 152 156 159 158 154 147 139 132 125 123 125
322 325 331 309 283 277 278 273 268 279 294 36 61 69 96 124 139 146 142 132 146 170 177 172 169 166 163 178 173 155 145 150 152 155 157 155 152 148 145 144 144 142 140
331 328 329 331 325 312 311 319 319 306 237 135 110 73 88 111 124 146 150 145 164 169 163 154 152 162 169 175 163 148 146 152 154 154 157 157 154 148 153 160 161 157 143
332 339 341 328 332 337 335 333 332 344 123 136 138 140 137 127 141 160 175 156 155 160 161 167 176 186 176 169 154 145 146 149 152 151 159 161 156 153 156 163 169 167 164
329 331 339 336 334 335 336 317 293 45 104 130 141 166 169 163 163 169 172 169 165 175 203 231 244 218 182 164 153 150 151 154 155 153 157 157 152 147 149 156 163 163 157
340 333 332 326 326 339 350 2 42 107 110 119 137 157 177 152 153 164 172 175 183 197 210 216 226 202 177 166 156 152 152 152 155 155 155 152 148 145 144 146 152 155 156
341 345 340 328 308 305 317 304 284 203 130 133 144 147 151 137 144 154 160 169 183 202 214 206 177 155 154 154 154 153 154 158 161 159 153 148 146 148 150 150 151 153 160
304 315 332 342 352 5 19 29 43 68 94 114 127 133 134 130 131 136 151 179 190 207 198 149 119 132 142 144 143 145 146 149 148 152 147 148 152 158 159 156 155 162 170
287 282 286 308 341 7 37 53 57 61 71 94 114 118 122 123 128 143 171 185 180 160 77 69 77 116 143 148 146 141 144 145 146 147 139 144 151 159 163 164 164 163 170
316 289 267 251 250 258 165 97 82 76 74 94 122 131 131 135 147 161 171 162 143 85 60 57 75 114 144 152 150 146 149 152 154 154 147 143 147 157 166 172 176 180 185
Height
1477 1475 1473 1470 1467 1465 1462 1460 1457 1455 1454 1454 1454 1454 1454 1455 1456 1458 1459 1460 1461 1462 1462 1462 1461 1460 1459 1458 1457 1456 1455 1454 1452 1452 1453 1454 1455 1456 1458 1460 1461 1463 1465
1471 1469 1466 1464 1462 1459 1457 1455 1454 1452 1451 1449 1449 1448 1448 1448 1449 1450 1451 1453 1454 1455 1455 1456 1456 1455 1454 1453 1452 1450 1449 1448 1447 1447 1448 1450 1452 1454 1456 1459 1461 1463 1465
1465 1462 1459 1457 1456 1453 1452 1450 1449 1448 1446 1445 1445 1444 1442 1442 1442 1443 1444 1445 1446 1447 1448 1449 1449 1450 1449 1448 1447 1445 1444 1442 1441 1441 1443 1447 1449 1452 1454 1458 1461 1463 1465
1457 1454 1451 1449 1448 1446 1445 1444 1443 1442 1440 1440 1439 1438 1438 1437 1436 1437 1438 1439 1439 1440 1440 1441 1442 1443 1444 1443 1442 1440 1438 1436 1435 1436 1439 1442 1446 1449 1452 1456 1460 1463 1465
1449 1446 1443 1441 1439 1438 1437 1436 1436 1435 1434 1433 1433 1433 1433 1433 1432 1431 1432 1433 1433 1433 1433 1433 1434 1436 1437 1437 1436 1435 1433 1431 1430 1431 1434 1437 1441 1445 1449 1454 1458 1462 1465
1440 1437 1434 1432 1430 1428 1428 1428 1428 1428 1428 1427 1427 1427 1428 1428 1428 1428 1428 1428 1427 1426 1425 1425 1427 1429 1431 1431 1431 1430 1429 1427 1426 1428 1430 1433 1437 1442 1446 1451 1455 1459 1465
1431 1428 1425 1422 1420 1418 1418 1418 1419 1419 1420 1421 1421 1421 1421 1422 1422 1422 1422 1422 1421 1419 1418 1417 1418 1421 1424 1425 1426 1426 1424 1423 1424 1426 1427 1430 1434 1439 1443 1449 1454 1459 1463
1420 1417 1414 1412 1410 1410 1409 1409 1410 1411 1411 1412 1413 1413 1414 1414 1415 1415 1415 1415 1414 1413 1411 1410 1411 1414 1417 1420 1421 1422 1421 1421 1422 1424 1426 1429 1434 1439 1444 1449 1455 1461 1467
1408 1406 1404 1402 1401 1400 1400 1400 1401 1402 1402 1403 1403 1404 1404 1405 1406 1407 1408 1408 1407 1406 1405 1404 1405 1408 1411 1415 1417 1418 1419 1420 1421 1424 1427 1430 1435 1441 1447 1452 1458 1463 1469
1397 1393 1391 1389 1389 1389 1389 1389 1390 1391 1392 1393 1393 1393 1394 1394 1396 1398 1400 1400 1400 1400 1399 1398 1398 1401 1406 1409 1412 1415 1417 1419 1421 1424 1429 1434 1439 1445 1450 1455 1459 1463 1468
1386 1381 1377 1376 1375 1375 1376 1377 1379 1380 1381 1381 1382 1382 1383 1383 1385 1388 1391 1392 1393 1394 1393 1393 1393 1396 1401 1405 1409 1413 1416 1419 1422 1426 1431 1436 1441 1447 1452 1457 1461 1464 1468
1375 1370 1367 1364 1364 1364 1364 1365 1367 1368 1369 1370 1371 1372 1372 1374 1376 1379 1383 1385 1387 1388 1388 1388 1388 1391 1397 1402 1408 1412 1416 1419 1423 1427 1432 1437 1442 1447 1453 1457 1462 1466 1470
1368 1363 1360 1357 1355 1355 1355 1355 1356 1357 1358 1360 1361 1362 1363 1366 1368 1372 1376 1379 1381 1382 1383 1384 1385 1388 1393 1399 1405 1411 1414 1418 1422 1427 1432 1438 1443 1448 1453 1458 1462 1466 1470
1361 1357 1354 1351 1349 1349 1349 1349 1349 1349 1350 1351 1353 1355 1357 1360 1362 1365 1369 1372 1375 1377 1379 1380 1382 1385 1390 1396 1402 1408 1413 1417 1422 1427 1433 1438 1443 1448 1453 1457 1461 1465 1468
1355 1351 1348 1346 1344 1344 1343 1343 1343 1344 1345 1346 1347 1350 1352 1354 1357 1360 1363 1366 1369 1372 1375 1377 1379 1383 1387 1392 1398 1405 1411 1416 1422 1427 1433 1438 1442 1447 1452 1456 1460 1463 1466
1351 1346 1344 1342 1340 1340 1340 1340 1340 1340 1341 1342 1343 1345 1348 1350 1353 1356 1359 1362 1366 1368 1371 1373 1377 1380 1384 1389 1395 1402 1408 1415 1421 1427 1432 1437 1442 1446 1451 1455 1459 1462 1465
1350 1345 1341 1339 1338 1338 1338 1338 1338 1339 1339 1339 1340 1342 1345 1348 1350 1353 1356 1359 1362 1365 1368 1370 1374 1378 1382 1387 1394 1400 1407 1414 1420 1426 1431 1436 1441 1446 1450 1453 1457 1460 1463
1350 1345 1342 1339 1338 1339 1339 1338 1338 1338 1338 1338 1339 1341 1344 1347 1350 1352 1355 1357 1360 1362 1365 1368 1372 1376 1381 1387 1393 1401 1408 1414 1419 1424 1430 1435 1440 1444 1448 1452 1456 1459 1462
1352 1347 1344 1342 1341 1340 1340 1340 1340 1339 1339 1338 1340 1342 1345 1348 1350 1353 1355 1357 1359 1361 1365 1367 1371 1376 1381 1388 1395 1402 1408 1413 1418 1424 1429 1434 1439 1443 1448 1452 1456 1459 1462
1355 1351 1347 1345 1344 1343 1342 1342 1341 1341 1341 1341 1342 1344 1347 1349 1351 1353 1355 1357 1359 1362 1365 1368 1373 1377 1383 1390 1396 1402 1408 1414 1419 1425 1430 1434 1438 1443 1447 1451 1455 1458 1462
1358 1354 1351 1348 1346 1345 1344 1343 1342 1342 1343 1343 1345 1346 1348 1350 1352 1354 1356 1359 1362 1365 1368 1372 1375 1380 1385 1391 1397 1404 1409 1415 1420 1425 1429 1433 1438 1442 1446 1450 1454 1458 1462
1361 1357 1354 1351 1348 1347 1346 1345 1344 1344 1345 1346 1347 1348 1349 1351 1353 1355 1358 1361 1365 1368 1371 1374 1378 1381 1386 1392 1399 1404 1410 1415 1420 1424 1429 1433 1437 1441 1446 1449 1453 1457 1461
1362 1359 1356 1353 1350 1349 1347 1346 1346 1346 1347 1348 1348 1349 1350 1353 1355 1357 1360 1364 1368 1371 1374 1376 1380 1384 1389 1395 1400 1405 1410 1415 1420 1424 1428 1433 1437 1441 1445 1448 1452 1455 1459
1359 1357 1356 1354 1352 1351 1349 1348 1348 1348 1349 1350 1351 1352 1354 1356 1359 1361 1365 1368 1372 1375 1377 1380 1383 1387 1392 1397 1401 1406 1411 1416 1420 1425 1429 1433 1437 1441 1445 1448 1451 1454 1458
1356 1354 1353 1353 1352 1352 1351 1350 1350 1351 1351 1353 1354 1356 1358 1361 1363 1367 1370 1373 1376 1379 1381 1384 1387 1391 1395 1399 1403 1408 1412 1417 1422 1426 1430 1434 1437 1441 1444 1447 1450 1453 1456
1357 1353 1351 1350 1350 1350 1351 1351 1352 1352 1353 1354 1356 1358 1361 1363 1367 1370 1374 1377 1381 1384 1386 1389 1392 1395 1398 1402 1406 1410 1414 1418 1423 1427 1431 1434 1437 1440 1443 1447 1449 1452 1454